Home > Weather > Guayaquil > Past weeks

Flag for Ecuador Past Weather in Guayaquil, Ecuador — Yesterday and Last 2 Weeks

Now
79 °F

Sunny.


Feels Like: 81 °F
Forecast: 69 / 88 °F
Wind: 7 mph from Southeast

Location: Guayaquil / Simon Bolivar

Current Time: Jul 29, 2016 at 11:07:52 AM

Latest Report: Jul 29, 2016 at 10:00 AM


Visibility: 10 mi

Pressure: 29.86 "Hg

Humidity: 65%

Dew Point: 66 °F

Location of GuayaquilLocation

Past Weather in Guayaquil — Graph

°F

Guayaquil Temperature Yesterday

Maximum temperature yesterday: 84 °F (at 3:00 PM)
Minimum temperature yesterday: 72 °F (at 4:00 AM)
Average temperature yesterday: 77 °F

High & Low Weather Summary for the Past Weeks

 TemperatureHumidityPressure
High88 °F (Jul 18, 3:00 PM)94% (Jul 20, 5:00 AM)29.95 "Hg (Jul 20, 5:00 AM)
Low70 °F (Jul 23, 1:00 AM)52% (Jul 25, 5:00 PM)29.74 "Hg (Jul 25, 4:00 PM)
Average77 °F76%29.86 "Hg
* Reported Jul 14 10:00 AM — Jul 29 10:00 AM, Guayaquil, Weather by CustomWeather, © 2016

Note: Actual official high and low records may vary slightly from our data, if they occured in-between our weather recording intervals... More about our weather records

Advertising

Guayaquil Weather History for the Previous 24 Hours

Scroll right to see more
 ConditionsComfort  
Time TempWeatherWind HumidityBarometerVisibility
10:00 AM
Fri, Jul 29
79 °FSunny.7 mph65%29.86 "Hg10 mi
9:00 AM75 °FSunny.3 mph74%29.89 "Hg10 mi
8:00 AM72 °FSunny.8 mph83%29.86 "Hg10 mi
7:00 AM70 °FScattered clouds.8 mph88%29.83 "HgN/A
6:00 AM70 °FPassing clouds.9 mph88%29.83 "HgN/A
5:00 AM70 °FPassing clouds.10 mph88%29.83 "HgN/A
4:00 AM70 °FClear.8 mph88%29.83 "Hg10 mi
3:00 AM70 °FClear.13 mph88%29.83 "Hg10 mi
1:00 AM72 °FClear.9 mph78%29.86 "Hg10 mi
12:00 AM73 °FClear.15 mph78%29.89 "Hg10 mi
11:00 PM
Thu, Jul 28
75 °FClear.10 mph74%29.89 "Hg10 mi
10:00 PM77 °FPassing clouds.14 mph69%29.86 "HgN/A
9:00 PM79 °FPartly cloudy.9 mph70%29.86 "HgN/A
8:00 PM79 °FPartly cloudy.7 mph70%29.83 "HgN/A
7:00 PM79 °FPassing clouds.7 mph70%29.80 "HgN/A
6:00 PM81 °FPartly sunny.7 mph66%29.80 "HgN/A
5:00 PM82 °FPartly sunny.9 mph62%29.77 "HgN/A
4:00 PM82 °FPartly sunny.6 mph62%29.77 "HgN/A
3:00 PM84 °FBroken clouds.8 mph84%29.77 "HgN/A
2:00 PM82 °FBroken clouds.9 mph84%29.80 "HgN/A
1:00 PM82 °FBroken clouds.10 mph84%29.80 "HgN/A
12:00 PM81 °FBroken clouds.10 mph84%29.83 "HgN/A
11:00 AM77 °FMostly cloudy.7 mph83%29.86 "HgN/A
Weather by CustomWeather, © 2016

See weather overviewHow to use our weather pages